Weather History for KVER - October, 2012

Change the Weather History Date:

Wednesday, October 24, 2012

  Actual Average Record
Temperature  
Mean Temperature 73 °F -  
Max Temperature 82 °F 64 °F 98 °F (2013)
Min Temperature 64 °F 44 °F 28 °F (1981)
Cooling Degree Days 8    
Growing Degree Days 23 (Base 50)    
Moisture  
Dew Point 62 °F    
Average Humidity 69    
Maximum Humidity 85    
Minimum Humidity 51    
Precipitation  
Precipitation 0.01 in - - ()
Sea Level Pressure  
Sea Level Pressure 29.85 in    
Wind  
Wind Speed 9 mph (South)    
Max Wind Speed 16 mph    
Max Gust Speed 22 mph    
Visibility 10 miles    
Events      
Averages and records for this station are not official NWS values.
T = Trace of Precipitation, MM = Missing Value Source: NWS Daily Summary

Daily Weather History Graph

Daily Weather History Graph

Search for Another Location

Airport or City:

Trip Planner

Search our weather history database for the weather conditions in past years. The results will help you decide how hot, cold, wet, or windy it might be!

Date:

Astronomy

Oct. 24, 2012 Rise Set
Actual Time 7:29 AM CDT 6:19 PM CDT
Civil Twilight 7:02 AM CDT 6:46 PM CDT
Nautical Twilight 6:31 AM CDT 7:17 PM CDT
Astronomical Twilight 6:00 AM CDT 7:48 PM CDT
Moon 3:33 PM CDT (10/24) 2:28 AM CDT (10/24)
Length of Visible Light 11h 43m
Length of Day
10h 49m
Waxing Gibbous, 76% of the Moon is Illuminated
Oct 24
Waxing Gibbous
Oct 29
Full
Nov 6
Last Quarter
Nov 13
New
Nov 20
First Quarter

Hourly Weather History & Observations

Time (CDT) Temp. Heat Index Dew Point Humidity Pressure Visibility Wind Dir Wind Speed Gust Speed Precip Events Conditions
12:35 AM 70.5 °F - 63.9 °F 79% 29.86 in 10.0 mi South 8.1 mph - N/A   Overcast
12:55 AM 70.3 °F - 63.5 °F 79% 29.87 in 10.0 mi South 8.1 mph - N/A   Mostly Cloudy
1:15 AM 69.8 °F - 62.8 °F 78% 29.87 in 10.0 mi South 8.1 mph - N/A   Scattered Clouds
1:35 AM 68.7 °F - 62.6 °F 81% 29.87 in 10.0 mi SSE 8.1 mph - N/A   Clear
1:55 AM 68.4 °F - 62.4 °F 81% 29.88 in 10.0 mi SSE 8.1 mph - N/A   Scattered Clouds
2:35 AM 67.6 °F - 61.3 °F 80% 29.87 in 10.0 mi SSE 8.1 mph - N/A   Clear
2:55 AM 66.9 °F - 60.4 °F 80% 29.87 in 10.0 mi SSE 8.1 mph - N/A   Clear
3:15 AM 66.2 °F - 60.1 °F 81% 29.87 in 10.0 mi SSE 4.6 mph - N/A   Clear
3:35 AM 65.3 °F - 59.7 °F 82% 29.88 in 10.0 mi SSE 5.8 mph - N/A   Clear
3:55 AM 64.9 °F - 59.4 °F 82% 29.88 in 10.0 mi SSE 4.6 mph - N/A   Clear
4:15 AM 64.0 °F - 59.2 °F 84% 29.87 in 10.0 mi SSE 4.6 mph - N/A   Clear
4:35 AM 64.2 °F - 59.5 °F 85% 29.88 in 10.0 mi SSE 8.1 mph - N/A   Clear
4:55 AM 64.6 °F - 59.4 °F 83% 29.88 in 10.0 mi SSE 8.1 mph - N/A   Clear
5:15 AM 64.9 °F - 59.5 °F 83% 29.88 in 10.0 mi SSE 8.1 mph - N/A   Clear
5:35 AM 65.1 °F - 59.5 °F 82% 29.88 in 10.0 mi SSE 6.9 mph - N/A   Clear
5:55 AM 64.9 °F - 59.7 °F 83% 29.88 in 10.0 mi South 9.2 mph - N/A   Clear
6:15 AM 64.8 °F - 59.9 °F 84% 29.89 in 10.0 mi SSE 9.2 mph - N/A   Clear
6:35 AM 65.3 °F - 59.9 °F 83% 29.89 in 10.0 mi South 10.4 mph - N/A   Clear
6:55 AM 65.5 °F - 60.3 °F 83% 29.89 in 10.0 mi South 8.1 mph - N/A   Clear
7:15 AM 65.8 °F - 60.3 °F 82% 29.89 in 10.0 mi South 9.2 mph - N/A   Clear
7:55 AM 65.5 °F - 60.8 °F 85% 29.89 in 10.0 mi South 9.2 mph - N/A   Clear
8:15 AM 66.2 °F - 61.0 °F 83% 29.90 in 10.0 mi South 10.4 mph - N/A   Clear
8:35 AM 67.1 °F - 61.3 °F 82% 29.90 in 10.0 mi South 10.4 mph - N/A   Clear
8:55 AM 68.2 °F - 61.7 °F 80% 29.90 in 10.0 mi South 11.5 mph - N/A   Clear
9:15 AM 69.3 °F - 61.9 °F 77% 29.90 in 10.0 mi South 12.7 mph - N/A   Clear
9:35 AM 70.5 °F - 62.1 °F 74% 29.90 in 10.0 mi South 12.7 mph - N/A   Clear
9:55 AM 71.8 °F - 62.4 °F 72% 29.89 in 10.0 mi South 11.5 mph 16.1 mph N/A   Clear
10:15 AM 73.0 °F - 62.8 °F 70% 29.89 in 10.0 mi South 10.4 mph 18.4 mph N/A   Clear
10:35 AM 74.3 °F - 63.3 °F 68% 29.89 in 10.0 mi South 11.5 mph 16.1 mph N/A   Clear
10:55 AM 75.6 °F - 63.9 °F 67% 29.88 in 10.0 mi South 11.5 mph 17.3 mph N/A   Clear
11:15 AM 76.8 °F - 64.2 °F 65% 29.88 in 10.0 mi South 11.5 mph 16.1 mph N/A   Clear
11:35 AM 77.9 °F - 64.2 °F 63% 29.87 in 10.0 mi SSW 11.5 mph 18.4 mph N/A   Clear
11:55 AM 78.8 °F - 64.2 °F 61% 29.87 in 10.0 mi South 12.7 mph 20.7 mph N/A   Clear
12:15 PM 79.7 °F - 64.4 °F 59% 29.86 in 10.0 mi South 12.7 mph 21.9 mph N/A   Clear
12:35 PM 80.1 °F 81.7 °F 63.9 °F 58% 29.86 in 10.0 mi South 16.1 mph 21.9 mph N/A   Clear
12:55 PM 80.6 °F 82.2 °F 63.9 °F 57% 29.85 in 10.0 mi South 13.8 mph 19.6 mph N/A   Clear
1:15 PM 81.5 °F 82.9 °F 63.9 °F 55% 29.84 in 10.0 mi South 12.7 mph 21.9 mph N/A   Clear
1:35 PM 81.7 °F 83.0 °F 63.5 °F 54% 29.83 in 10.0 mi South 13.8 mph 20.7 mph N/A   Scattered Clouds
2:15 PM 82.4 °F 83.7 °F 63.9 °F 53% 29.82 in 10.0 mi SSW 9.2 mph 19.6 mph N/A   Scattered Clouds
2:35 PM 81.7 °F 83.2 °F 63.9 °F 55% 29.82 in 10.0 mi SSW 13.8 mph 19.6 mph N/A   Scattered Clouds
2:55 PM 82.0 °F 83.4 °F 63.9 °F 54% 29.81 in 10.0 mi South 10.4 mph 18.4 mph N/A   Clear
3:15 PM 82.2 °F 83.5 °F 63.7 °F 53% 29.81 in 10.0 mi South 10.4 mph 18.4 mph N/A   Clear
3:35 PM 82.9 °F 84.0 °F 63.3 °F 51% 29.81 in 10.0 mi South 11.5 mph - N/A   Clear
4:15 PM 82.0 °F 83.1 °F 62.6 °F 52% 29.80 in 10.0 mi South 12.7 mph - N/A   Clear
4:35 PM 81.9 °F 82.9 °F 62.6 °F 52% 29.80 in 10.0 mi South 12.7 mph 18.4 mph N/A   Clear
4:55 PM 81.3 °F 82.3 °F 61.9 °F 52% 29.80 in 10.0 mi South 9.2 mph 16.1 mph N/A   Scattered Clouds
5:15 PM 80.6 °F 81.7 °F 62.2 °F 53% 29.80 in 10.0 mi South 8.1 mph - N/A   Scattered Clouds
5:35 PM 80.1 °F 81.2 °F 62.2 °F 54% 29.80 in 10.0 mi South 6.9 mph - N/A   Scattered Clouds
5:55 PM 79.3 °F - 62.2 °F 56% 29.80 in 10.0 mi South 10.4 mph - N/A   Clear
6:15 PM 77.7 °F - 62.4 °F 59% 29.80 in 10.0 mi South 9.2 mph - N/A   Clear
6:35 PM 75.9 °F - 62.4 °F 63% 29.80 in 10.0 mi SSE 8.1 mph - N/A   Clear
6:55 PM 75.2 °F - 61.9 °F 63% 29.80 in 10.0 mi SSE 9.2 mph - N/A   Clear
7:15 PM 75.0 °F - 61.7 °F 63% 29.80 in 10.0 mi SSE 9.2 mph - N/A   Clear
7:35 PM 74.5 °F - 61.7 °F 64% 29.80 in 10.0 mi SSE 8.1 mph - N/A   Clear
7:55 PM 73.6 °F - 61.7 °F 66% 29.80 in 10.0 mi SSE 8.1 mph - N/A   Clear
8:15 PM 73.6 °F - 61.7 °F 66% 29.80 in 10.0 mi SSE 10.4 mph - N/A   Clear
8:35 PM 73.9 °F - 61.5 °F 65% 29.80 in 10.0 mi SSE 9.2 mph - N/A   Clear
8:55 PM 74.3 °F - 61.2 °F 63% 29.80 in 10.0 mi SSE 11.5 mph - N/A   Clear
9:15 PM 74.5 °F - 61.0 °F 63% 29.80 in 10.0 mi SSE 11.5 mph - N/A   Clear
9:35 PM 74.3 °F - 60.8 °F 63% 29.80 in 10.0 mi SSE 12.7 mph - N/A   Clear
9:55 PM 73.8 °F - 60.8 °F 64% 29.80 in 10.0 mi SSE 11.5 mph - N/A   Clear
10:15 PM 73.4 °F - 60.8 °F 65% 29.80 in 10.0 mi SSE 11.5 mph 18.4 mph N/A   Clear
10:35 PM 73.4 °F - 60.8 °F 65% 29.79 in 10.0 mi SSE 12.7 mph - N/A   Clear
10:55 PM 73.0 °F - 60.8 °F 65% 29.79 in 10.0 mi SSE 12.7 mph - N/A   Clear
11:15 PM 72.7 °F - 60.4 °F 65% 29.79 in 10.0 mi SSE 15.0 mph - N/A   Clear